Regional Weather Roundup
Issued by NWS

Home | Current Version | Previous Version | Graphics & Text | Print | Product List | Glossary On
Versions: 1 2 3 4 5 6 7 8 9 10 11 12 13 14 15 16 17 18 19 20 21 22 23 24 25 26 27 28 29 30 31 32 33 34 35 36 37 38 39 40 41 42 43 44 45 46 47 48 49 50
000
ASUS45 KABQ 270301
RWRNM
NEW MEXICO REGIONAL WEATHER ROUNDUP
NATIONAL WEATHER SERVICE ALBUQUERQUE NM
900 PM MDT FRI AUG 26 2016

NOTE: "FAIR" MEANS FEW OR NO CLOUDS BELOW 12,000 FEET AGL WITH NO
       SIGNIFICANT WEATHER OR OBSTRUCTIONS TO VISION.

      THIS PRODUCT IS RELEASED AS TWO VERSIONS.  ONE VERSION NEAR
      THE TOP OF THE HOUR CONTAINING PRELIMINARY DATA FROM ALBUQUERQUE
      AND OTHER STATIONS.  A FINAL VERSION WITH ADDITIONAL DATA IS
      ISSUED ABOUT 10 MINUTES AFTER THE HOUR.

NMZ501-503-504-510>518-270400-
NORTHWEST PLATEAU/NORTHCENTRAL MOUNTAINS

CITY           SKY/WX    TMP DP  RH WIND       PRES   REMARKS
FARMINGTON     FAIR      70  39  32 W3        30.13R
LOS ALAMOS     CLOUDY    62  48  60 SW6       30.28R
SANTA FE       CLOUDY    67  52  58 SE7       30.21R
TAOS           FAIR      61  41  48 SW7       30.26R
ANGEL FIRE     FAIR      50  44  79 SE9       30.35R

$$
NMZ402-403-502-505>509-270400-
WESTCENTRAL MOUNTAINS/SOUTHWEST MOUNTAINS

CITY           SKY/WX    TMP DP  RH WIND       PRES   REMARKS
GALLUP         FAIR      62  42  47 S3        30.22R
GRANTS         FAIR      59  47  64 SW3       30.24S
SILVER CITY    CLOUDY    65  57  73 N13       30.18R

$$
NMZ407-409-411-412-270400-
SOUTHERN DESERTS

CITY           SKY/WX    TMP DP  RH WIND       PRES   REMARKS
DEMING         FAIR      72  57  59 N9        30.10R
LAS CRUCES     MOCLDY    75  52  44 CALM      30.10S
ALAMOGORDO     CLOUDY    68  57  68 NE16G22   30.12F
T OR C         CLOUDY    72  49  44 W6        30.13R

$$
NMZ519>523-270400-
CENTRAL VALLEYS/CENTRAL HIGHLANDS

CITY           SKY/WX    TMP DP  RH WIND       PRES   REMARKS
ALBUQUERQUE    MOCLDY    73  46  38 SE7       30.16R
DOUBLE EAGLE   MOCLDY    66  48  52 CALM      30.19R
MORIARTY ARPT  CLOUDY    62  51  68 SE7       30.24R
CLINES CORNERS LGT RAIN  56  50  80 S8        30.28F
BELEN          FAIR      69  45  42 N6        30.15R
SOCORRO        FAIR      73  44  36 SW5       30.12S

$$
NMZ524>526-539-540-270400-
SOUTHCENTRAL MOUNTAINS

CITY           SKY/WX    TMP DP  RH WIND       PRES   REMARKS
RUIDOSO        NOT AVBL

$$
NMZ527>531-270400-
NORTHEAST HIGHLANDS/NORTHEAST PLAINS

CITY           SKY/WX    TMP DP  RH WIND       PRES   REMARKS
LAS VEGAS      CLOUDY    56  51  84 SW9       30.26R
RATON          FAIR      58  49  72 NW3       30.19R
CLAYTON        FAIR      64  53  67 W12       30.11R

$$
NMZ532>537-270400-
EASTCENTRAL PLAINS

CITY           SKY/WX    TMP DP  RH WIND       PRES   REMARKS
TUCUMCARI      FAIR      67  58  72 SE10      30.09R
CANNON AFB     FAIR      67  62  86 SE10      30.14R
CLOVIS AIRPORT FAIR      63  57  82 S8        30.14R

$$
NMZ028-029-538-270400-
SOUTHEAST PLAINS

CITY           SKY/WX    TMP DP  RH WIND       PRES   REMARKS
ROSWELL        MOCLDY    76  60  57 NW15      30.09R
ARTESIA        FAIR      75  63  64 SE12G17   30.09R
CARLSBAD       FAIR      74  61  63 SE8       30.06R
HOBBS          FAIR      68  68 100 SE6       30.12R


$$




USA.gov is the U.S. government's official web portal to all federal, state and local government web resources and services.